This is the latest recevied weather packets stored in our database for station/object N4NVD-13. If no packets are shown the sender has not sent any weather packets the latest 1 day(s).
| Time | Temp. | Humidity | Pressure | Rain* | Wind** | Luminosity | Snow |
|---|---|---|---|---|---|---|---|
| 1778056774 | 24.44° C | 97% | 1007.1 hPa | 0 mm | 0.89 m/s, 235° | 0 W/m² | - |
| 1778056471 | 24.44° C | 97% | 1007.2 hPa | 0 mm | 0.45 m/s, 209° | 0 W/m² | - |
| 1778056168 | 24.44° C | 97% | 1007.2 hPa | 0 mm | 0.89 m/s, 228° | 0 W/m² | - |
| 1778055865 | 24.44° C | 97% | 1007.1 hPa | 0 mm | 2.68 m/s, 215° | 0 W/m² | - |
| 1778055561 | 23.89° C | 97% | 1007.2 hPa | 0 mm | 1.34 m/s, 222° | 0 W/m² | - |
| 1778055260 | 23.89° C | 97% | 1007 hPa | 0 mm | 1.79 m/s, 182° | 0 W/m² | - |
| 1778054956 | 23.89° C | 97% | 1007 hPa | 0 mm | 0.45 m/s, 185° | 0 W/m² | - |
| 1778054653 | 23.89° C | 97% | 1007.1 hPa | 0 mm | 0 m/s | 0 W/m² | - |
| 1778054351 | 23.89° C | 98% | 1007.2 hPa | 0 mm | 1.34 m/s, 252° | 0 W/m² | - |
| 1778054048 | 23.89° C | 98% | 1007.2 hPa | 0 mm | 2.24 m/s, 214° | 0 W/m² | - |
| 1778053745 | 23.89° C | 98% | 1007.2 hPa | 0 mm | 1.34 m/s, 154° | 0 W/m² | - |
| 1778053442 | 23.89° C | 98% | 1007.3 hPa | 0 mm | 0 m/s | 0 W/m² | - |
| 1778053139 | 23.89° C | 98% | 1007.3 hPa | 0 mm | 0 m/s | 0 W/m² | - |
| 1778052837 | 23.89° C | 98% | 1007.3 hPa | 0 mm | 1.34 m/s, 154° | 0 W/m² | - |
| 1778052534 | 23.89° C | 98% | 1007.2 hPa | 0 mm | 0.45 m/s, 186° | 0 W/m² | - |
| 1778052232 | 23.89° C | 98% | 1007.2 hPa | 0 mm | 0.89 m/s, 165° | 0 W/m² | - |
| 1778051929 | 23.89° C | 98% | 1007.5 hPa | 0 mm | 1.34 m/s, 157° | 0 W/m² | - |
| 1778051627 | 23.89° C | 98% | 1007.6 hPa | 0 mm | 0 m/s | 0 W/m² | - |
| 1778051323 | 23.89° C | 98% | 1007.6 hPa | 0 mm | 1.34 m/s, 227° | 0 W/m² | - |
| 1778051021 | 23.89° C | 98% | 1007.4 hPa | 0 mm | 1.79 m/s, 206° | 0 W/m² | - |
| 1778050718 | 23.89° C | 98% | 1007.6 hPa | 0 mm | 0.45 m/s, 203° | 0 W/m² | - |
| 1778050416 | 23.89° C | 98% | 1007.6 hPa | 0 mm | 1.34 m/s, 146° | 0 W/m² | - |
| 1778050112 | 23.89° C | 98% | 1007.7 hPa | 0 mm | 1.34 m/s, 229° | 0 W/m² | - |
| 1778049807 | 23.89° C | 98% | 1007.5 hPa | 0 mm | 0.89 m/s, 169° | 0 W/m² | - |
| 1778049505 | 23.89° C | 98% | 1007.7 hPa | 0 mm | 2.24 m/s, 220° | 0 W/m² | - |
* Rain latest hour (hover to see other rain measurements)
** Current wind speed in m/s (hover to see current wind gust speed)